Weather History for Rawlins, WY

Change the Weather History Date:

Sunday, December 30, 2012

  Actual Average Record
Temperature  
Mean Temperature 12 °F 21 °F  
Max Temperature 24 °F 31 °F 52 °F (1980)
Min Temperature -1 °F 12 °F -18 °F (1978)
Degree Days  
Heating Degree Days 53 44  
Month to date heating degree days 889 1307  
Since 1 July heating degree days 2559 3413  
Cooling Degree Days 0 0  
Month to date cooling degree days 0 0  
Year to date cooling degree days 419 186  
Moisture  
Dew Point 2 °F    
Average Humidity 69    
Maximum Humidity 87    
Minimum Humidity 50    
Precipitation  
Precipitation 0.00 in 0.02 in 0.10 in (1957)
Month to date precipitation 0.18 0.42  
Year to date precipitation 4.77 9.24  
Sea Level Pressure  
Sea Level Pressure 30.11 in    
Wind  
Wind Speed 6 mph (WSW)    
Max Wind Speed 25 mph    
Max Gust Speed 38 mph    
Visibility 10 miles    
Events      
T = Trace of Precipitation, MM = Missing Value Source: NWS Daily Summary

Daily Weather History Graph

Daily Weather History Graph

Search for Another Location

Airport:

Trip Planner

Search our weather history database for the weather conditions in past years. The results will help you decide how hot, cold, wet, or windy it might be!

Date:

Astronomy

Dec. 30, 2012 Rise Set
Actual Time 7:36 AM MST 4:47 PM MST
Civil Twilight 7:04 AM MST 5:18 PM MST
Nautical Twilight 6:29 AM MST 5:53 PM MST
Astronomical Twilight 5:55 AM MST 6:27 PM MST
Moon 7:23 PM MST (12/30) 8:44 AM MST (12/30)
Length of Visible Light 10h 14m
Length of Day
9h 11m
Waning Gibbous, 95% of the Moon is Illuminated
Dec 30
Waning Gibbous
Jan 4
Last Quarter
Jan 11
New
Jan 18
First Quarter
Jan 26
Full

Hourly Weather History & Observations

Time (MST) Temp. Windchill Dew Point Humidity Pressure Visibility Wind Dir Wind Speed Gust Speed Precip Events Conditions
12:53 AM 16.0 °F 1.1 °F -0.0 °F 49% 30.07 in 10.0 mi SSW 15.0 mph - N/A   Clear
1:53 AM 14.0 °F 0.5 °F -0.0 °F 54% 30.09 in 10.0 mi SW 11.5 mph - N/A   Clear
2:53 AM 12.9 °F 3.8 °F -0.0 °F 56% 30.09 in 10.0 mi SW 5.8 mph - N/A   Clear
3:53 AM 15.1 °F 1.1 °F 1.9 °F 56% 30.09 in 10.0 mi SW 12.7 mph - N/A   Partly Cloudy
4:53 AM 17.1 °F 3.0 °F 3.0 °F 54% 30.08 in 10.0 mi SW 13.8 mph - N/A   Scattered Clouds
5:53 AM 16.0 °F 2.3 °F 3.0 °F 57% 30.11 in 10.0 mi SW 12.7 mph - N/A   Clear
6:53 AM 12.9 °F 5.2 °F 1.0 °F 59% 30.14 in 10.0 mi WSW 4.6 mph - N/A   Clear
7:53 AM 12.9 °F 0.7 °F -0.0 °F 56% 30.13 in 10.0 mi West 9.2 mph - N/A   Clear
8:53 AM 16.0 °F - 1.9 °F 54% 30.13 in 10.0 mi Calm Calm - N/A   Overcast
9:53 AM 18.0 °F 12.7 °F 3.0 °F 52% 30.14 in 10.0 mi South 3.5 mph - N/A   Overcast
10:53 AM 18.0 °F 9.8 °F 5.0 °F 57% 30.12 in 10.0 mi South 5.8 mph - N/A   Clear
11:53 AM 19.9 °F 14.9 °F 5.0 °F 52% 30.10 in 10.0 mi SSW 3.5 mph - N/A   Partly Cloudy
12:53 PM 23.0 °F 18.4 °F 7.0 °F 50% 30.06 in 10.0 mi NNW 3.5 mph - N/A   Clear
1:53 PM 21.9 °F - 8.1 °F 55% 30.08 in 10.0 mi Calm Calm - N/A   Clear
2:53 PM 21.9 °F 12.5 °F 7.0 °F 53% 30.07 in 10.0 mi WSW 8.1 mph - N/A   Overcast
3:53 PM 17.1 °F 5.8 °F 8.1 °F 68% 30.09 in 10.0 mi North 9.2 mph - N/A   Partly Cloudy
4:53 PM 10.9 °F -0.8 °F 3.0 °F 70% 30.11 in 10.0 mi North 8.1 mph - N/A   Clear
5:53 PM 7.0 °F - 1.0 °F 77% 30.14 in 10.0 mi Calm Calm - N/A   Clear
6:53 PM 3.0 °F -6.4 °F -2.9 °F 76% 30.17 in 10.0 mi NW 4.6 mph - N/A   Clear
7:53 PM 1.9 °F - -2.9 °F 80% 30.17 in 10.0 mi Calm Calm - N/A   Clear
8:53 PM 1.9 °F -11.8 °F -2.9 °F 80% 30.14 in 10.0 mi NNW 8.1 mph - N/A   Scattered Clouds
9:53 PM 1.0 °F - -4.0 °F 79% 30.14 in 10.0 mi Calm Calm - N/A   Clear
10:53 PM 1.9 °F -5.6 °F -2.0 °F 83% 30.15 in 10.0 mi NNW 3.5 mph - N/A   Mostly Cloudy
11:53 PM 3.9 °F - -0.9 °F 80% 30.13 in 10.0 mi Calm Calm - N/A   Overcast